This is the latest recevied weather packets stored in our database for station/object N9OJR. If no packets are shown the sender has not sent any weather packets the latest 1 day(s).
| Time | Temp. | Humidity | Pressure | Rain* | Wind** | Luminosity | Snow |
|---|---|---|---|---|---|---|---|
| 1777988660 | 18.89° C | 72% | 1003.9 hPa | 0 mm | 0 m/s | 577 W/m² | - |
| 1777988356 | 18.89° C | 74% | 1004.2 hPa | 0 mm | 0.45 m/s, 301° | 563 W/m² | - |
| 1777988054 | 18.33° C | 73% | 1003.9 hPa | 0 mm | 0.89 m/s, 243° | 537 W/m² | - |
| 1777987749 | 17.78° C | 76% | 1003.9 hPa | 0 mm | 0 m/s | 446 W/m² | - |
| 1777987446 | 17.22° C | 76% | 1003.8 hPa | 0 mm | 0.45 m/s, 257° | 223 W/m² | - |
| 1777987143 | 16.67° C | 78% | 1003.8 hPa | 0 mm | 0.45 m/s, 231° | 127 W/m² | - |
| 1777986840 | 16.67° C | 77% | 1003.6 hPa | 0 mm | 0.45 m/s, 231° | 138 W/m² | - |
| 1777986538 | 16.67° C | 78% | 1003.7 hPa | 0 mm | 0 m/s | 160 W/m² | - |
| 1777986236 | 16.67° C | 78% | 1003.8 hPa | 0 mm | 0.45 m/s, 278° | 163 W/m² | - |
| 1777985933 | 16.11° C | 78% | 1003.7 hPa | 0 mm | 0.45 m/s, 70° | 122 W/m² | - |
| 1777985631 | 16.11° C | 79% | 1003.7 hPa | 0 mm | 0 m/s | 77 W/m² | - |
| 1777985327 | 16.11° C | 79% | 1003.7 hPa | 0 mm | 0 m/s | 56 W/m² | - |
| 1777985024 | 16.11° C | 78% | 1003.3 hPa | 0 mm | 0 m/s | 51 W/m² | - |
| 1777984719 | 16.11° C | 78% | 1003.3 hPa | 0 mm | 0.45 m/s, 257° | 52 W/m² | - |
| 1777984417 | 16.11° C | 78% | 1003.2 hPa | 0 mm | 0.45 m/s, 332° | 58 W/m² | - |
| 1777984112 | 16.11° C | 78% | 1003.2 hPa | 0 mm | 0.89 m/s, 343° | 58 W/m² | - |
| 1777983810 | 16.11° C | 78% | 1002.9 hPa | 0 mm | 0 m/s | 48 W/m² | - |
| 1777983507 | 16.11° C | 78% | 1003.1 hPa | 0 mm | 0.45 m/s, 336° | 47 W/m² | - |
| 1777983204 | 16.11° C | 78% | 1002.9 hPa | 0 mm | 0 m/s | 49 W/m² | - |
| 1777982900 | 16.11° C | 78% | 1002.8 hPa | 0 mm | 0.45 m/s, 194° | 49 W/m² | - |
| 1777982596 | 15.56° C | 78% | 1002.8 hPa | 0 mm | 0 m/s | 39 W/m² | - |
| 1777982294 | 15.56° C | 78% | 1002.7 hPa | 0 mm | 0.45 m/s, 189° | 27 W/m² | - |
| 1777981992 | 15.56° C | 78% | 1002.7 hPa | 0 mm | 0.45 m/s, 355° | 32 W/m² | - |
| 1777981690 | 15.56° C | 79% | 1003 hPa | 0 mm | 0 m/s | 26 W/m² | - |
| 1777981386 | 15.56° C | 78% | 1003 hPa | 0 mm | 1.34 m/s, 218° | 16 W/m² | - |
* Rain latest hour (hover to see other rain measurements)
** Current wind speed in m/s (hover to see current wind gust speed)